Regional Weather Roundup
Issued by NWS

Home | Current Version | Previous Version | Graphics & Text | Print | Product List | Glossary On
Versions: 1 2 3 4 5 6 7 8 9 10 11 12 13 14 15 16 17 18 19 20 21 22 23 24 25 26 27 28 29 30 31 32 33 34 35 36 37 38 39 40 41 42 43 44 45 46 47 48 49 50
112
ASUS43 KBIS 250902
RWRND

NORTH DAKOTA REGIONAL WEATHER ROUNDUP
NATIONAL WEATHER SERVICE BISMARCK ND
400 AM CDT MON SEP 25 2017

NOTE: "FAIR" INDICATES FEW OR NO CLOUDS BELOW 12,000 FEET WITH NO
SIGNIFICANT WEATHER AND/OR OBSTRUCTIONS TO VISIBILITY.


NDZ001>003-009>011-017-251000-
NORTHWEST NORTH DAKOTA

CITY           SKY/WX    TMP DP  RH WIND       PRES   REMARKS
WILLISTON      CLOUDY    45  44  97 SE3       30.14S
MINOT          CLOUDY    47  44  90 SW3       30.11F
MINOT AFB      CLOUDY    45  43  94 W6        30.10S
$$

NDZ018>021-031>035-040>046-251000-
SOUTHWEST NORTH DAKOTA

CITY           SKY/WX    TMP DP  RH WIND       PRES   REMARKS
BISMARCK       CLOUDY    49  46  90 NW6       30.13R
DICKINSON      CLOUDY    44  41  89 CALM      30.11S
GARRISON         N/A     44  44 100 N6        30.12S
HETTINGER ARPT CLOUDY    44  38  79 N3        30.14S
$$

NDZ004>008-012>016-024-026-027-054-251000-
NORTHEAST NORTH DAKOTA

CITY           SKY/WX    TMP DP  RH WIND       PRES   REMARKS
GRAND FORKS    CLOUDY    49  48  97 N12G22    30.06R
GRND FRKS AFB  CLOUDY    50  48  93 N10       30.08R
DEVILS LAKE    CLOUDY    47  45  93 N9        30.10R
$$

NDZ022-023-025-028>030-036>039-047>053-251000-
SOUTHEAST NORTH DAKOTA

CITY           SKY/WX    TMP DP  RH WIND       PRES   REMARKS
FARGO          CLOUDY    51  49  92 N14       30.06R
JAMESTOWN      CLOUDY    48  46  93 NW12      30.09S
$$





USA.gov is the U.S. government's official web portal to all federal, state and local government web resources and services.